星链-1863 (STARLINK-1863 )

导读 | 豆包AI

STARLINK-1863是美国太空探索技术公司Starlink星链卫星互联网项目的成员,于2020年11月25日发射升空,属于星链计划首批组网卫星之一。它依托低轨轨道部署,为全球提供高速宽带互联网服务,尤其助力偏远地区网络覆盖,是星链低轨卫星星座组网建设过程中的重要组网卫星。

基本信息
目录编号:
47150
目录名称:
STARLINK-1863
国际标识:
2020-088AE
轨道中心:
EARTH
卫星名称:
星链-1863
卫星全名:
星链-1863 (STARLINK-1863 )
卫星状态:
已陨落 最后检测时间 2025-11-01
发射日期:
2020-11-25 UTC
国别 :
美国 (US)
星等 :
--
轨道信息
数据来源 国际轨道数据
星历时间: 2025-11-01T04:18:46+0800
轨道信息已过期133天
半长轴: 6546.031km
偏心率: 0.0005736
轨道倾角: 53.021°
近地点辐角 292.772°
升交点赤经 80.825°
平近点角 67.272°
近地点: 164.141km
远地点: 171.651km
周期: 87.847分钟
每日圈数: 16.392141
详细信息
固有亮度:
5
最大亮度:
2.5
卫星平台:
Starlink V1.0
覆盖范围:
全球
运营商:
太空探索技术公司
运营商所在国:
美国
制造商(研发单位):
太空探索技术公司
制造商所在国:
美国
使用方式:
暂无
卫星简介
星链(Starlink)计划是由太空探索技术公司(SpaceX)提出的一个巨型低轨卫星互联网星座项目,计划在2019年至2024年间在太空搭建由约1.2万颗卫星组成的“星链”网络,其中1584颗将部署在地球上空550千米处的近地轨道,并从2020年开始工作。该卫星仍在工作。